Theta_e
297 296 296 294 294 296 296 299 301 302 304 305 307 310 313 317 316 316 315 313 313 312
296 296 296 296 295 295 297 299 300 301 302 304 306 310 313 316 316 316 315 315 314 313
296 296 296 295 295 296 297 299 299 300 302 304 307 312 314 315 317 316 316 315 314 313
295 295 296 295 296 297 297 298 299 300 302 305 310 313 316 317 317 315 315 315 314 313
294 295 296 295 296 297 297 298 299 300 303 310 314 315 315 315 315 314 313 313 313 312
294 294 295 296 296 296 297 298 299 302 309 313 314 313 314 314 313 312 312 313 313 311
293 294 295 295 295 296 297 297 299 301 304 307 308 309 308 307 305 305 306 309 310 310
292 294 294 294 294 295 296 297 298 299 299 299 299 302 303 302 301 301 299 298 299 301
293 293 292 293 293 294 294 295 295 294 294 294 295 294 296 299 299 298 298 296 296 297
290 290 291 292 293 292 294 294 293 293 293 293 293 293 293 293 296 295 294 294 294 292
290 289 288 289 291 291 292 292 293 293 292 292 292 292 291 290 291 290 290 291 291 291
289 288 288 288 289 289 290 291 290 291 291 291 291 292 292 291 290 288 286 287 288 288
289 289 288 288 287 287 287 287 287 287 287 285 288 291 291 291 288 286 285 286 286 287
288 288 288 287 287 287 287 287 286 285 284 285 285 288 292 291 287 286 285 284 284 284
Wind_Speed
4 3 3 4 4 4 3 3 4 4 3 4 5 4 3 1 7 7 8 8 5 4
3 4 4 4 3 3 4 4 5 4 5 5 5 4 3 2 6 8 6 7 7 5
4 4 4 4 4 5 5 5 6 6 4 5 6 6 6 4 6 8 6 6 8 5
3 4 4 3 5 6 6 6 5 5 5 6 7 7 7 7 9 7 7 6 9 7
3 4 4 5 6 6 7 6 5 4 6 7 6 6 7 7 7 8 7 7 8 8
4 4 6 6 6 6 6 5 5 3 3 6 7 7 6 6 5 6 6 7 8 8
4 4 5 5 6 6 6 6 6 6 7 6 6 7 7 6 6 6 5 5 6 6
3 4 5 6 7 7 8 8 8 9 10 10 9 4 7 7 6 7 8 7 7 6
4 5 5 5 7 8 9 10 10 12 11 11 8 12 13 9 8 8 8 9 8 8
4 6 6 6 7 8 8 9 12 11 11 12 10 17 18 15 10 9 9 9 8 8
5 6 5 5 7 7 6 8 8 10 10 11 9 16 18 16 11 11 10 8 8 9
4 6 6 7 6 5 6 8 8 7 9 11 9 12 12 11 9 10 9 8 8 8
5 6 6 6 6 4 5 6 5 8 7 7 9 10 11 9 6 8 7 7 8 13
5 6 5 5 4 4 5 6 7 8 6 7 7 8 12 10 5 6 6 5 5 4
Wind_Direction
1 7 333 357 335 328 324 315 303 282 295 286 267 256 250 153 150 151 148 134 119 124
38 355 330 344 318 294 291 299 302 303 284 280 255 238 220 179 142 142 147 154 139 137
23 347 355 336 315 301 298 305 299 297 277 251 221 203 200 188 151 149 152 159 162 140
336 342 329 307 315 325 316 303 299 280 270 235 198 185 184 153 145 144 152 155 162 150
348 337 327 360 338 323 305 308 291 271 246 192 181 156 125 124 141 150 148 149 153 153
17 10 357 343 329 328 323 335 328 315 139 95 104 109 112 117 125 134 142 150 148 148
33 1 4 348 342 352 356 12 14 26 59 67 83 86 88 97 92 91 87 114 127 135
59 28 10 9 8 10 27 29 43 60 56 49 49 54 98 88 83 91 81 59 58 62
64 53 30 31 38 29 37 47 57 56 61 58 50 53 72 92 86 79 85 86 68 60
76 57 51 34 45 46 51 64 63 62 63 62 59 64 71 73 76 72 67 68 74 68
105 93 73 68 62 47 48 61 70 71 67 71 63 76 76 79 82 78 68 66 76 82
109 91 82 72 69 50 66 65 61 58 71 80 66 62 74 84 83 78 70 67 64 74
124 111 102 92 75 64 61 72 67 67 50 53 68 62 80 90 100 91 82 62 65 72
132 122 113 102 90 93 89 91 82 81 59 64 57 51 67 76 81 105 98 90 75 59